Track VANGUARD 1 now! 10-day predictions VANGUARD 1 is classified as:
1 00005U 58002B 23086.73693168 .00000141 00000-0 15223-3 0 9994 2 00005 34.2607 346.3417 1846818 232.8595 108.8821 10.85075180315313